CAPE
0 0 0 0 0 0 0 0 1 2 0 0 0 0 0 0 1 44 35 7 7 9 11 21 54 149 163 551 934 1444 1545 1525 1424 940 1635 810 364 217 8 101 2 11 3
0 0 0 0 0 0 0 0 0 0 0 0 0 0 0 0 3 1 28 35 19 11 5 4 5 20 176 552 746 967 1280 1991 1517 1580 756 181 155 230 26 13 9 6 8
3 2 0 0 0 0 0 0 0 0 0 0 0 0 0 0 0 0 10 26 23 20 15 12 4 12 41 225 15 556 969 1121 1263 1325 610 9 8 11 10 12 7 6 5
4 0 0 0 0 0 0 0 0 0 0 0 0 0 0 0 0 0 2 2 14 18 20 25 12 5 19 37 28 1 372 856 1230 1092 1095 169 6 11 5 8 8 12 7
0 0 0 0 0 0 0 0 0 0 0 0 0 0 0 0 0 0 0 0 0 8 16 23 25 8 0 0 0 19 23 44 830 828 1104 344 8 11 9 20 11 9 16
0 0 0 0 0 0 0 0 0 0 2 2 3 1 3 0 0 0 0 0 0 0 7 14 25 29 17 0 0 0 0 8 40 427 1142 708 387 8 18 21 26 19 75
0 0 0 0 0 0 0 0 4 10 15 13 9 8 9 9 0 0 0 0 0 0 3 10 14 14 20 37 15 0 0 0 0 16 8 163 799 583 26 88 46 17 41
0 0 0 0 0 0 3 7 14 15 16 18 13 14 14 9 0 0 0 1 0 1 4 7 15 20 23 20 42 27 9 1 0 6 17 9 106 273 305 122 59 110 55
0 0 0 0 0 3 7 12 16 11 11 13 14 15 14 18 0 0 0 6 1 3 3 9 10 7 1 0 11 8 31 35 2 0 0 0 0 0 5 197 35 64 11
0 0 0 1 3 7 14 9 5 7 12 14 13 13 7 9 0 0 0 7 4 3 6 8 0 0 0 0 8 13 18 40 39 19 0 1 10 0 0 51 91 27 135
0 0 0 3 11 16 17 9 5 10 7 10 10 13 8 7 6 0 0 10 9 10 7 4 8 0 0 0 0 9 10 12 27 37 5 0 0 156 2 7 194 37 86
1 2 5 10 13 13 8 3 6 13 14 13 10 7 14 8 0 0 0 0 1 12 9 7 11 0 0 0 0 0 0 0 1 4 9 1 0 120 37 7 2 134 73
5 9 10 9 7 13 20 19 9 11 11 10 4 4 8 9 12 0 0 0 0 4 9 4 0 0 0 0 0 0 0 8 6 8 6 9 0 0 145 19 10 17 15
10 10 9 9 6 8 9 9 13 8 6 4 3 4 4 7 8 9 8 13 3 4 6 10 5 0 0 0 0 6 9 13 20 28 19 13 5 2 233 57 5 7 1
11 6 6 9 7 9 9 10 13 13 7 17 19 19 21 9 8 0 1 9 13 10 8 13 16 9 11 11 15 19 17 18 24 14 37 31 15 9 205 108 11 4 0
7 10 10 10 9 6 13 13 6 0 0 0 0 2 13 3 0 0 0 0 0 0 11 13 15 16 11 10 13 13 12 12 24 29 47 42 29 8 78 202 11 4 0
11 4 15 5 13 5 5 19 12 8 0 0 0 0 0 0 0 0 0 0 0 0 19 16 16 19 16 16 8 13 15 14 19 39 39 50 57 21 27 374 17 7 6
9 4 9 12 16 22 16 14 16 12 11 9 4 0 0 0 0 0 0 1 21 8 14 16 18 19 18 17 12 9 15 15 5 30 26 18 60 34 59 272 75 11 2
9 7 14 14 8 13 15 17 13 16 23 19 18 8 5 1 0 0 0 26 18 17 15 14 22 26 18 21 16 18 15 12 1 44 27 49 12 56 107 173 426 51 6
13 2 2 8 11 13 18 23 18 19 19 17 19 19 19 21 20 15 14 15 16 14 15 13 10 15 23 24 14 23 18 10 1 31 34 41 5 66 88 185 428 60 3
20 27 0 17 24 26 27 17 23 20 17 21 22 13 0 23 19 14 13 13 14 11 10 13 11 12 18 23 14 24 27 30 11 29 19 20 1 75 58 113 369 226 211
27 29 31 30 26 23 23 23 24 29 27 29 21 13 0 8 21 16 14 14 12 10 13 15 18 14 13 19 19 20 26 38 11 56 16 70 35 19 95 187 362 438 11
19 23 26 28 25 11 25 26 18 22 29 24 24 21 17 20 18 16 15 15 14 12 17 22 28 17 20 19 23 6 13 30 28 42 43 24 15 15 127 172 291 376 5
21 20 18 10 17 15 11 13 19 14 35 31 32 33 36 33 28 21 20 18 19 17 13 20 26 18 16 17 25 9 8 0 66 40 6 8 14 27 104 251 238 236 17
14 17 22 16 11 10 13 13 18 21 22 27 26 27 31 29 30 27 32 25 25 23 23 20 23 19 22 11 16 11 0 0 13 0 1 4 12 7 97 183 241 382 137
22 17 12 10 9 11 12 15 16 20 20 19 23 26 33 37 38 41 36 36 38 30 23 21 23 22 5 28 12 6 0 0 0 0 0 3 3 69 152 144 180 364 244
CIN
-0 -0 -0 -0 -0 -0 -0 -0 -38 -58 -0 -0 -0 -0 -0 -0 -0 -0 -0 -0 -0 -0 -0 -0 -69 -96 -96 -29 -0 -0 -0 -0 -0 -0 -0 -36 -74 -94 -105 -97 -0 -0 -0
-0 -0 -0 -0 -0 -0 -0 -0 -0 -0 -0 -0 -0 -0 -0 -0 -140 -44 -0 -0 -0 -0 -0 -0 -0 -0 -77 -21 -3 -0 -0 -0 -0 -0 -11 -105 -115 -104 -170 -91 -0 -0 -0
-0 -0 -0 -0 -0 -0 -0 -0 -0 -0 -0 -0 -0 -0 -0 -0 -0 -0 -0 -0 -0 -0 -0 -0 -0 -0 -0 -56 -71 -13 -0 -0 -0 -0 -6 -0 -0 -0 -0 -0 -0 -0 -0
-0 -0 -0 -0 -0 -0 -0 -0 -0 -0 -0 -0 -0 -0 -0 -0 -0 -0 -0 -0 -0 -0 -0 -0 -0 -0 -0 -0 -0 -1 -17 -0 -0 -0 -0 -58 -0 -0 -0 -0 -0 -0 -0
-0 -0 -0 -0 -0 -0 -0 -0 -0 -0 -0 -0 -0 -0 -0 -0 -0 -0 -0 -0 -0 -0 -0 -0 -0 -1 -0 -0 -0 -0 -1 -22 -0 -2 -0 -11 -0 -0 -0 -0 -0 -0 -33
-0 -0 -0 -0 -0 -0 -0 -0 -0 -0 -0 -0 -0 -0 -0 -0 -0 -0 -0 -0 -0 -0 -0 -0 -0 -1 -10 -0 -0 -0 -0 -0 -1 -0 -0 -0 -0 -80 -0 -0 -91 -0 -65
-0 -0 -0 -0 -0 -0 -0 -0 -0 -0 -0 -0 -0 -0 -0 -0 -0 -0 -0 -0 -0 -0 -0 -0 -0 -0 -4 -0 -8 -0 -0 -0 -0 -0 -0 -9 -0 -0 -60 -52 -59 -0 -79
-0 -0 -0 -0 -0 -0 -0 -0 -0 -0 -0 -0 -0 -0 -0 -0 -0 -0 -0 -0 -0 -0 -0 -0 -0 -0 -0 -1 -0 -0 -0 -0 -0 -0 -1 -31 -11 -2 -18 -52 -77 -58 -41
-0 -0 -0 -0 -0 -0 -0 -0 -0 -0 -0 -0 -0 -0 -0 -0 -0 -0 -5 -0 -0 -0 -0 -0 -0 -0 -0 -0 -0 -0 -0 -0 -0 -0 -0 -0 -0 -0 -0 -16 -46 -43 -18
-0 -0 -0 -0 -0 -0 -0 -0 -0 -0 -0 -0 -0 -0 -0 -0 -1 -0 -0 -0 -0 -0 -0 -0 -0 -0 -0 -0 -0 -0 -0 -0 -0 -0 -0 -0 -0 -0 -0 -22 -18 -41 -41
-0 -0 -0 -0 -0 -0 -0 -0 -0 -0 -0 -0 -0 -0 -0 -1 -0 -0 -0 -0 -0 -0 -0 -0 -0 -0 -0 -0 -0 -0 -0 -3 -11 -0 -0 -0 -0 -0 -0 -36 -20 -82 -23
-0 -0 -0 -0 -0 -0 -0 -0 -0 -0 -0 -0 -0 -0 -0 -1 -0 -1 -0 -0 -3 -0 -0 -0 -0 -0 -0 -0 -0 -0 -0 -0 -0 -0 -0 -0 -0 -0 -13 -0 -27 -36 -46
-0 -0 -0 -0 -0 -0 -0 -0 -0 -0 -0 -0 -0 -0 -0 -0 -0 -0 -0 -0 -0 -0 -0 -1 -0 -0 -0 -0 -0 -0 -0 -0 -0 -0 -0 -0 -0 -0 -0 -0 -0 -18 -26
-0 -0 -0 -0 -0 -0 -0 -0 -0 -0 -0 -0 -0 -0 -0 -0 -0 -0 -0 -0 -5 -0 -0 -0 -2 -0 -0 -0 -1 -1 -0 -0 -0 -0 -0 -0 -0 -0 -11 -10 -0 -0 -0
-0 -0 -0 -0 -0 -0 -0 -0 -0 -0 -1 -0 -0 -0 -0 -0 -0 -1 -0 -0 -0 -0 -0 -0 -0 -0 -0 -0 -0 -0 -0 -0 -0 -0 -0 -0 -0 -0 -15 -13 -2 -0 -0
-0 -0 -0 -0 -0 -0 -0 -0 -1 -1 -0 -0 -0 -0 -0 -1 -0 -0 -0 -0 -0 -0 -0 -0 -0 -0 -0 -0 -0 -0 -0 -0 -0 -0 -0 -0 -0 -0 -0 -0 -4 -0 -0
-0 -0 -0 -0 -0 -0 -0 -0 -0 -0 -0 -0 -0 -0 -0 -0 -0 -0 -0 -0 -0 -0 -0 -0 -0 -0 -0 -0 -0 -0 -0 -0 -0 -0 -0 -0 -0 -0 -1 -0 -0 -0 -0
-0 -4 -0 -0 -0 -0 -0 -1 -0 -0 -1 -0 -0 -2 -2 -0 -0 -0 -0 -0 -0 -0 -0 -0 -0 -0 -0 -0 -0 -0 -0 -0 -0 -0 -0 -10 -0 -0 -0 -0 -0 -15 -0
-0 -0 -0 -0 -0 -0 -0 -0 -0 -0 -0 -0 -0 -0 -0 -3 -0 -2 -2 -0 -0 -0 -0 -0 -0 -0 -0 -0 -0 -0 -0 -0 -0 -0 -0 -0 -4 -0 -1 -10 -0 -2 -32
-0 -2 -1 -0 -0 -0 -0 -0 -0 -0 -0 -0 -0 -0 -0 -0 -0 -0 -0 -0 -0 -0 -0 -0 -0 -0 -0 -0 -0 -0 -0 -0 -2 -0 -0 -0 -0 -0 -0 -13 -0 -3 -11
-0 -0 -2 -0 -0 -0 -0 -0 -0 -0 -0 -0 -0 -0 -0 -0 -0 -0 -0 -0 -0 -0 -0 -0 -0 -0 -0 -0 -0 -0 -0 -0 -0 -0 -0 -0 -0 -0 -0 -4 -0 -0 -0
-0 -0 -0 -0 -0 -0 -0 -0 -0 -0 -0 -0 -0 -0 -0 -0 -0 -0 -0 -0 -0 -0 -0 -0 -0 -0 -0 -0 -0 -0 -0 -0 -0 -0 -0 -0 -0 -0 -0 -0 -0 -0 -8
-0 -0 -0 -0 -0 -0 -0 -0 -0 -0 -0 -0 -0 -0 -0 -0 -0 -0 -0 -0 -0 -0 -0 -0 -0 -0 -0 -0 -0 -0 -0 -0 -1 -0 -0 -0 -0 -0 -0 -0 -0 -0 -0
-0 -0 -0 -0 -0 -0 -0 -0 -0 -0 -0 -0 -0 -0 -0 -0 -0 -0 -0 -0 -0 -0 -0 -0 -0 -0 -0 -0 -0 -0 -0 -1 -0 -0 -0 -0 -0 -0 -0 -0 -0 -0 -7
-0 -0 -0 -0 -0 -0 -0 -0 -0 -0 -0 -0 -0 -0 -0 -0 -0 -0 -0 -0 -0 -0 -0 -0 -0 -0 -0 -0 -0 -0 -1 -0 -1 -1 -0 -0 -0 -0 -0 -0 -0 -0 -0
-0 -0 -0 -0 -0 -0 -0 -0 -0 -0 -0 -0 -0 -0 -0 -0 -0 -0 -0 -0 -0 -0 -0 -0 -0 -0 -0 -0 -0 -0 -0 -0 -0 -0 -0 -0 -0 -0 -0 -0 -0 -0 -0
Wind_Speed
6 6 5 5 5 5 5 6 7 8 9 9 9 8 7 8 10 10 10 12 7 7 7 8 8 6 6 8 6 8 10 10 11 7 4 7 9 9 6 5 10 8 8
6 2 3 3 3 5 5 6 7 8 9 10 11 11 11 9 10 11 12 12 10 9 9 9 9 7 7 6 7 10 10 9 9 11 6 3 4 9 9 9 7 7 7
3 1 2 2 3 4 5 6 8 10 11 11 12 12 12 11 11 10 11 10 11 10 10 9 9 8 7 6 6 9 10 8 9 9 4 3 2 6 7 6 6 7 7
3 2 1 1 3 5 6 8 9 10 12 12 12 12 12 13 12 13 9 11 12 11 11 10 10 9 8 9 6 5 8 10 9 7 6 5 5 5 6 7 6 5 7
5 3 1 3 5 6 7 9 10 11 11 12 12 12 11 10 8 8 10 12 12 12 12 11 11 7 9 7 7 7 8 7 8 7 6 5 6 5 8 6 7 7 8
4 1 3 5 7 7 9 9 10 11 11 11 11 11 12 9 8 10 12 13 13 13 12 12 11 12 12 6 5 2 6 9 8 8 6 6 8 8 9 8 6 7 7
1 3 5 7 8 9 10 10 10 11 11 13 12 11 12 12 3 3 7 12 13 13 13 11 11 11 7 11 6 6 10 9 8 8 7 9 7 10 9 10 11 9 6
4 6 7 8 9 9 10 11 11 11 12 12 12 12 12 12 5 5 9 15 13 13 13 12 12 13 12 9 10 10 10 9 9 6 5 7 9 6 13 10 10 10 3
7 8 8 9 10 10 10 11 12 11 11 11 12 12 12 13 7 6 11 13 13 13 12 12 12 12 8 1 12 12 12 11 9 11 10 10 12 11 12 8 8 9 8
8 9 9 10 11 11 10 9 8 10 11 10 12 12 12 12 9 3 7 10 12 11 12 12 11 13 6 1 10 13 13 12 11 12 9 8 8 7 10 9 10 11 10
9 10 11 11 11 12 11 9 9 10 10 11 12 11 11 11 9 0 5 9 8 9 10 10 8 10 3 2 4 10 12 10 11 9 10 11 10 6 5 8 9 11 11
10 12 12 12 10 11 11 11 11 10 11 11 11 10 9 6 5 6 3 6 10 11 11 10 10 5 3 4 7 8 9 9 10 11 12 11 11 7 7 8 10 10 7
10 10 11 12 11 12 12 13 10 10 9 10 9 9 9 7 7 6 7 8 10 9 9 11 16 13 11 10 15 13 9 11 10 11 12 13 11 10 10 9 9 8 7
11 11 11 11 12 11 9 9 9 9 9 9 9 9 9 8 8 8 6 4 7 9 9 9 9 12 14 14 13 13 12 13 11 11 12 11 11 12 8 8 6 7 5
10 11 11 10 11 11 10 9 10 11 9 11 11 11 10 9 9 7 8 10 9 9 10 10 10 10 10 9 9 10 9 11 11 10 13 10 11 13 9 7 7 7 6
10 10 9 10 10 10 9 9 11 12 13 15 17 15 12 13 14 17 17 15 15 14 10 9 10 10 10 10 10 10 10 12 10 10 12 12 12 13 10 8 7 8 8
11 12 10 11 10 11 11 11 11 10 13 15 17 18 18 19 19 20 19 18 16 14 11 10 10 11 11 11 10 10 11 11 12 9 12 9 12 12 11 10 8 9 8
12 12 10 9 9 10 10 9 9 10 12 13 12 13 14 14 16 17 17 14 11 13 12 11 11 11 11 11 10 10 10 11 10 11 10 6 13 12 12 11 9 10 10
13 11 11 11 11 11 11 11 11 12 11 11 11 10 11 11 13 13 15 11 11 10 10 10 10 9 9 11 10 10 11 9 9 10 9 11 10 11 10 11 10 10 10
12 14 11 11 10 11 10 9 10 10 11 10 10 10 9 8 9 10 9 9 10 10 10 10 9 9 9 10 10 10 10 9 9 11 10 10 10 10 12 12 11 9 11
11 11 10 11 10 10 10 10 10 10 10 10 10 10 7 10 12 11 10 9 9 9 10 10 9 10 9 10 9 11 9 8 8 11 8 8 9 11 11 11 12 10 9
9 9 9 9 10 10 10 10 11 11 11 11 12 12 11 9 10 10 10 9 9 9 9 10 9 9 9 9 9 10 10 8 9 10 8 9 9 10 11 13 10 11 9
9 10 10 9 10 11 10 9 10 10 10 11 11 10 10 9 10 10 10 9 9 9 8 9 10 9 9 8 9 8 9 7 10 7 9 7 8 9 12 10 11 12 11
10 12 11 11 10 10 9 11 10 11 11 12 12 11 11 10 10 10 10 9 9 9 9 9 10 12 8 10 9 8 9 8 8 6 7 6 8 12 11 12 12 13 12
10 9 10 10 10 10 11 10 11 11 12 11 11 11 12 11 11 10 10 9 9 9 9 9 8 11 14 15 13 10 11 6 5 3 3 7 10 16 13 12 12 15 15
10 10 10 9 9 10 10 11 11 11 11 11 11 12 12 11 11 11 9 9 8 8 9 7 9 14 12 12 11 10 7 6 5 5 5 6 10 12 11 12 17 12 16
Wind_Direction
102 87 68 48 36 35 23 13 3 354 351 343 343 347 347 347 325 322 304 286 304 308 305 306 297 281 279 276 272 262 253 249 246 233 123 140 167 167 159 130 156 155 153
132 82 45 32 25 15 10 0 353 344 334 334 335 334 339 341 328 321 309 309 304 306 307 302 306 312 309 292 294 267 265 259 257 252 127 138 171 175 163 166 161 166 176
192 258 80 57 34 13 355 345 335 329 324 322 321 321 321 321 318 315 305 316 307 308 305 309 310 312 316 333 329 307 274 257 240 249 139 136 122 170 152 161 165 190 207
219 237 149 22 352 340 329 323 319 320 312 312 314 314 312 309 307 299 320 315 312 309 309 303 302 302 324 317 309 311 310 292 263 259 191 166 167 163 158 160 167 193 205
202 202 199 310 320 317 315 315 314 311 310 310 310 308 305 300 299 340 323 312 303 301 299 294 289 349 299 302 315 337 325 315 288 262 241 158 181 160 184 165 186 183 214
180 229 303 312 314 313 310 309 307 307 310 310 306 304 303 296 49 12 337 311 300 289 287 287 294 283 255 273 247 300 319 304 297 295 269 224 206 209 182 175 183 175 194
236 302 316 316 313 312 311 309 309 309 307 305 302 302 301 298 86 0 316 296 294 282 279 279 278 277 287 280 240 252 249 221 247 297 297 294 282 190 176 178 191 178 227
312 317 317 317 314 314 314 313 314 313 311 307 306 303 300 299 326 329 310 294 284 283 280 275 270 275 274 295 292 279 271 272 259 252 260 278 285 307 187 189 191 192 181
326 326 328 323 313 315 313 324 328 315 308 300 296 299 300 296 335 319 303 302 291 284 279 272 274 279 300 84 270 266 263 261 252 207 232 244 265 272 265 163 176 198 168
339 329 323 318 313 310 315 319 304 300 298 302 307 299 294 291 299 283 277 293 299 300 293 278 215 246 137 258 276 273 263 257 258 271 254 227 222 233 236 207 169 195 175
330 326 319 319 322 304 309 309 304 299 293 293 292 295 289 276 290 242 276 290 294 306 298 299 301 87 141 208 282 281 280 319 283 258 257 254 252 244 219 217 212 204 207
333 329 331 326 316 308 308 300 301 295 291 287 287 289 285 300 261 254 193 258 295 285 284 286 291 40 284 275 277 291 326 304 259 254 253 247 245 225 222 207 224 205 240
332 328 315 315 306 303 306 303 299 300 299 298 295 293 295 302 308 205 222 253 263 270 282 303 312 297 262 261 245 250 269 258 250 247 248 243 239 231 212 210 217 232 211
313 318 317 312 307 301 298 293 297 297 295 292 298 295 296 297 294 288 284 277 261 259 277 276 301 298 276 268 291 270 251 250 258 250 241 252 243 245 191 192 196 183 186
316 314 311 306 305 303 295 293 291 288 300 304 298 296 299 289 284 309 293 289 282 281 297 284 281 278 269 260 252 253 257 258 248 245 258 241 242 242 202 178 178 168 160
313 308 315 306 310 303 298 289 267 242 270 269 261 258 279 275 275 271 266 262 255 257 265 258 256 260 265 269 259 259 252 249 254 242 240 253 230 234 218 177 181 178 164
313 311 308 308 305 302 301 303 301 296 279 265 266 264 251 259 268 269 268 267 262 254 253 247 244 248 251 253 249 249 250 248 246 250 242 251 242 234 238 183 177 178 178
311 304 301 297 300 305 310 298 291 290 291 294 282 268 275 264 256 262 263 266 265 238 245 252 249 244 243 248 246 249 249 248 260 240 261 235 263 227 232 195 187 179 178
311 312 316 309 309 296 289 287 283 283 285 287 293 281 277 266 266 259 255 261 266 262 261 255 244 245 247 254 252 243 248 247 262 248 234 248 271 234 231 222 182 183 166
325 315 307 310 303 295 293 293 291 289 289 287 286 287 292 285 282 282 274 263 258 260 261 260 257 247 246 247 248 253 246 240 250 248 234 253 251 264 240 223 185 175 170
317 314 308 297 303 304 302 292 294 295 289 288 288 293 288 284 286 281 272 262 260 258 260 260 258 249 236 244 245 243 247 241 245 247 231 250 238 253 259 232 184 164 185
313 308 307 306 305 302 303 303 296 296 294 293 295 293 270 266 270 271 269 263 263 260 258 259 255 252 244 245 242 249 245 237 252 235 236 245 240 266 249 235 179 175 153
313 313 311 312 311 309 308 304 299 295 296 296 293 292 291 284 281 278 275 273 265 259 256 256 251 251 248 239 244 249 262 245 246 226 238 251 258 273 235 239 184 173 157
326 328 324 322 318 315 308 307 307 305 306 310 310 308 300 294 289 283 278 274 264 259 254 250 251 247 237 243 245 235 252 271 253 215 227 256 263 262 239 228 183 164 154
331 324 324 324 320 316 314 314 313 313 315 314 314 311 307 304 298 294 286 275 267 258 253 250 248 246 245 236 243 240 245 280 243 179 261 276 270 274 232 218 189 171 160
334 329 328 325 322 322 319 318 318 319 318 317 314 313 312 310 306 301 293 285 273 261 253 247 243 248 251 243 236 248 243 266 275 241 258 279 286 233 208 198 177 169 162